Weather History for PASN - June, 2013

Change the Weather History Date:

Sunday, June 16, 2013

  Actual Average Record
Temperature  
Mean Temperature 43 °F 43 °F  
Max Temperature 48 °F 47 °F 57 °F (1977)
Min Temperature 38 °F 38 °F 28 °F (1962)
Degree Days  
Heating Degree Days 22 22  
Month to date heating degree days 402 386  
Since 1 June heating degree days 402 386  
Since 1 July heating degree days 11360 10507  
Cooling Degree Days 0    
Month to date cooling degree days 0  
Year to date cooling degree days 0  
Since 1 June cooling degree days 0  
Moisture  
Dew Point 40 °F    
Average Humidity 0    
Maximum Humidity 0    
Minimum Humidity 0    
Precipitation  
Precipitation 0.59 in 0.05 in 0.61 in (1970)
Month to date precipitation 0.93 0.66  
Year to date precipitation 8.11 6.82  
Snow  
Snow 0.00 in 0.00 in T in (2010)
Month to date snowfall 0.0 0.0  
Since 1 June snowfall 0.0 0.0  
Since 1 July snowfall 72.7 59.8  
Snow Depth 0.00 in    
Sea Level Pressure  
Sea Level Pressure 30.08 in    
Wind  
Wind Speed 12 mph (East)    
Max Wind Speed 17 mph    
Max Gust Speed 22 mph    
Visibility 6 miles    
Events Fog , Rain    
T = Trace of Precipitation, MM = Missing Value Source: NWS Daily Summary

Daily Weather History Graph

Daily Weather History Graph

Search for Another Location

Airport or City:

Trip Planner

Search our weather history database for the weather conditions in past years. The results will help you decide how hot, cold, wet, or windy it might be!

Date:

Astronomy

Jun. 16, 2013 Rise Set
Actual Time 6:24 AM AKDT 12:19 AM AKDT
Civil Twilight 5:15 AM AKDT 1:28 AM AKDT
Nautical Twilight 3:54 AM AKDT 2:49 AM AKDT
Astronomical Twilight Sun does not set Sun does not set
Moon 3:51 PM AKDT (6/16) 3:00 AM AKDT (6/16)
Length of Visible Light 20h 12m
Length of Day
17h 54m
Waxing Crescent, 51% of the Moon is Illuminated
Jun 16
Waxing Crescent
Jun 23
Full
Jun 29
Last Quarter
Jul 7
New
Jul 15
First Quarter

Hourly Weather History & Observations

Time (AKDT) Temp. Windchill Dew Point Humidity Pressure Visibility Wind Dir Wind Speed Gust Speed Precip Events Conditions
12:07 AM 39.2 °F 31.2 °F 37.4 °F 93% 30.01 in 7.0 mi SSE 13.8 mph - N/A   Overcast
12:48 AM 41.0 °F 32.8 °F 39.2 °F 93% 30.02 in 8.0 mi SSE 16.1 mph - N/A   Mostly Cloudy
12:53 AM 41.0 °F 33.1 °F 39.0 °F 93% 30.03 in 9.0 mi SSE 15.0 mph - N/A   Mostly Cloudy
1:53 AM 39.9 °F 31.4 °F 39.0 °F 97% 30.03 in 8.0 mi SSE 16.1 mph - N/A   Scattered Clouds
2:10 AM 39.2 °F 30.8 °F 39.2 °F 100% 30.04 in 9.0 mi SSE 15.0 mph - N/A   Mostly Cloudy
2:53 AM 39.0 °F 31.8 °F 37.9 °F 96% 30.06 in 9.0 mi SSE 11.5 mph - N/A   Mostly Cloudy
3:03 AM 39.2 °F 32.0 °F 37.4 °F 93% 30.05 in 9.0 mi SSE 11.5 mph - N/A   Scattered Clouds
3:19 AM 39.2 °F 32.0 °F 39.2 °F 100% 30.06 in 9.0 mi SE 11.5 mph - N/A   Mostly Cloudy
3:53 AM 39.9 °F 32.1 °F 39.0 °F 97% 30.07 in 9.0 mi SE 13.8 mph - N/A   Mostly Cloudy
4:09 AM 39.2 °F 31.2 °F 39.2 °F 100% 30.06 in 8.0 mi SE 13.8 mph - N/A   Mostly Cloudy
4:53 AM 39.9 °F 33.4 °F 39.0 °F 97% 30.07 in 8.0 mi SE 10.4 mph - N/A   Overcast
5:53 AM 39.0 °F 31.8 °F 39.0 °F 100% 30.08 in 6.0 mi SSE 11.5 mph - N/A Fog Patches of Fog
6:15 AM 37.4 °F 31.4 °F 37.4 °F 100% 30.07 in 1.0 mi SE 8.1 mph - N/A   Mostly Cloudy
6:21 AM 39.2 °F 32.0 °F 39.2 °F 100% 30.07 in 6.0 mi SE 11.5 mph - N/A Fog Patches of Fog
6:53 AM 39.0 °F 32.3 °F 39.0 °F 100% 30.09 in 3.0 mi SE 10.4 mph - N/A   Overcast
7:30 AM 39.2 °F 34.2 °F 39.2 °F 100% 30.10 in 6.0 mi East 6.9 mph - N/A   Mostly Cloudy
7:53 AM 39.9 °F 32.9 °F 39.0 °F 97% 30.10 in 9.0 mi ESE 11.5 mph - N/A   Mostly Cloudy
8:53 AM 41.0 °F 33.9 °F 39.9 °F 96% 30.12 in 8.0 mi SE 12.7 mph - N/A   Overcast
9:53 AM 41.0 °F 35.2 °F 39.0 °F 93% 30.12 in 10.0 mi SE 9.2 mph - N/A   Overcast
10:53 AM 42.1 °F 35.7 °F 39.9 °F 92% 30.13 in 10.0 mi ESE 11.5 mph - N/A   Mostly Cloudy
11:33 AM 42.8 °F 37.5 °F 39.2 °F 87% 30.14 in 10.0 mi ESE 9.2 mph - N/A   Mostly Cloudy
11:50 AM 42.8 °F 38.0 °F 39.2 °F 87% 30.14 in 10.0 mi ESE 8.1 mph - N/A   Scattered Clouds
11:53 AM 44.1 °F 40.1 °F 41.0 °F 89% 30.14 in 10.0 mi ESE 6.9 mph - N/A   Mostly Cloudy
12:05 PM 44.6 °F 39.7 °F 41.0 °F 87% 30.13 in 10.0 mi ESE 9.2 mph - N/A   Mostly Cloudy
12:17 PM 44.6 °F 39.2 °F 41.0 °F 87% 30.14 in 10.0 mi ESE 10.4 mph - N/A   Scattered Clouds
12:53 PM 45.0 °F 39.3 °F 41.0 °F 86% 30.13 in 8.0 mi ESE 11.5 mph - N/A   Scattered Clouds
1:27 PM 44.6 °F 38.4 °F 41.0 °F 87% 30.15 in 10.0 mi East 12.7 mph - N/A   Mostly Cloudy
1:53 PM 44.1 °F 38.1 °F 39.9 °F 85% 30.16 in 10.0 mi ESE 11.5 mph - N/A   Mostly Cloudy
2:04 PM 42.8 °F 37.5 °F 39.2 °F 87% 30.15 in 10.0 mi ESE 9.2 mph - N/A   Mostly Cloudy
2:14 PM 44.6 °F 40.2 °F 39.2 °F 81% 30.15 in 10.0 mi ESE 8.1 mph - N/A   Partly Cloudy
2:53 PM 45.0 °F 39.3 °F 41.0 °F 86% 30.15 in 10.0 mi East 11.5 mph - N/A   Partly Cloudy
3:53 PM 46.0 °F 39.9 °F 41.0 °F 83% 30.13 in 10.0 mi East 13.8 mph - N/A   Partly Cloudy
4:00 PM 46.4 °F 40.1 °F 41.0 °F 81% 30.13 in 3.0 mi East 15.0 mph - N/A   Haze
4:03 PM 44.6 °F 37.8 °F 39.2 °F 81% 30.13 in 1.5 mi East 15.0 mph - N/A   Haze
4:14 PM 42.8 °F 35.4 °F 39.2 °F 87% 30.13 in 0.8 mi East 15.0 mph - N/A   Mostly Cloudy
4:23 PM 46.4 °F 40.7 °F 42.8 °F 87% 30.13 in 1.5 mi East 12.7 mph - N/A   Overcast
4:35 PM 46.4 °F 40.7 °F 42.8 °F 87% 30.12 in 2.0 mi East 12.7 mph - N/A   Overcast
4:46 PM 48.2 °F - 42.8 °F 82% 30.11 in 10.0 mi ENE 13.8 mph - N/A   Overcast
4:53 PM 46.9 °F - 43.0 °F 86% 30.11 in 9.0 mi ENE 11.5 mph - N/A   Scattered Clouds
5:00 PM 48.2 °F - 42.8 °F 82% 30.10 in 10.0 mi ENE 12.7 mph - N/A   Mostly Cloudy
5:18 PM 44.6 °F 38.1 °F 41.0 °F 87% 30.11 in 10.0 mi ENE 13.8 mph - N/A   Overcast
5:53 PM 43.0 °F 36.0 °F 42.1 °F 97% 30.09 in 10.0 mi NE 13.8 mph - 0.00 in Rain Light Rain
6:22 PM 42.8 °F 35.1 °F 42.8 °F 100% 30.09 in 6.0 mi NE 16.1 mph 21.9 mph 0.01 in Rain Light Rain
6:44 PM 41.0 °F 33.9 °F 41.0 °F 100% 30.08 in 2.5 mi NE 12.7 mph - 0.03 in Rain Rain
6:53 PM 41.0 °F 33.5 °F 41.0 °F 100% 30.08 in 2.0 mi NE 13.8 mph - 0.05 in Rain Rain
7:13 PM 41.0 °F 33.5 °F 41.0 °F 100% 30.07 in 3.0 mi NE 13.8 mph - 0.05 in Rain Rain
7:33 PM 39.2 °F 31.6 °F 39.2 °F 100% 30.08 in 2.5 mi ENE 12.7 mph - 0.09 in Rain Rain
7:40 PM 39.2 °F 31.6 °F 39.2 °F 100% 30.08 in 2.5 mi NE 12.7 mph - 0.11 in Rain Rain
7:48 PM 39.2 °F 32.0 °F 39.2 °F 100% 30.07 in 3.0 mi NE 11.5 mph - 0.14 in Rain Rain
7:53 PM 39.9 °F 32.9 °F 39.9 °F 100% 30.06 in 3.0 mi NE 11.5 mph - 0.15 in Rain Light Rain
8:01 PM 39.2 °F 32.0 °F 39.2 °F 100% 30.05 in 1.8 mi NE 11.5 mph - 0.00 in Rain Light Rain
8:14 PM 39.2 °F 32.0 °F 39.2 °F 100% 30.06 in 0.8 mi NE 11.5 mph - 0.02 in Rain Light Rain
8:23 PM 39.2 °F 32.5 °F 39.2 °F 100% 30.06 in 1.2 mi NE 10.4 mph - 0.04 in Rain Rain
8:29 PM 39.2 °F 31.6 °F 39.2 °F 100% 30.04 in 2.0 mi NE 12.7 mph - 0.05 in Rain Light Rain
8:43 PM 41.0 °F 33.9 °F 41.0 °F 100% 30.05 in 3.0 mi NE 12.7 mph - 0.07 in Rain Light Rain
8:53 PM 39.9 °F 33.4 °F 39.9 °F 100% 30.05 in 3.0 mi NE 10.4 mph - 0.10 in Rain Rain
9:00 PM 39.2 °F 32.5 °F 39.2 °F 100% 30.05 in 2.5 mi NE 10.4 mph - 0.02 in Rain Rain
9:48 PM 39.2 °F 32.5 °F 39.2 °F 100% 30.03 in 1.5 mi NE 10.4 mph - 0.12 in Rain Light Rain
9:53 PM 39.9 °F 33.4 °F 39.9 °F 100% 30.03 in 2.0 mi NE 10.4 mph - 0.12 in Rain Light Rain
10:00 PM 39.2 °F 32.0 °F 39.2 °F 100% 30.03 in 3.0 mi NE 11.5 mph - 0.01 in Rain Light Rain
10:53 PM 39.9 °F 32.1 °F 39.9 °F 100% 30.00 in 3.0 mi NE 13.8 mph - 0.07 in Rain Light Rain
11:12 PM 39.2 °F 31.2 °F 39.2 °F 100% 29.99 in 3.0 mi ENE 13.8 mph - 0.03 in Rain Light Rain
11:21 PM 39.2 °F 31.2 °F 39.2 °F 100% 29.98 in 2.5 mi NE 13.8 mph - 0.05 in Rain Light Rain
11:33 PM 39.2 °F 32.0 °F 39.2 °F 100% 29.98 in 3.0 mi ENE 11.5 mph - 0.06 in Rain Light Rain
11:53 PM 39.9 °F 32.9 °F 39.9 °F 100% 29.99 in 2.5 mi ENE 11.5 mph - 0.08 in Rain Light Rain